Preview of NWS' New Version of Forecast
This preview is not operational and should not be used for support decisions.

Regional Weather Roundup (RWR)

Issued by National Weather Service (NWS)

                            
000
ASUS46 KSEW 172110
RWRWA 

WASHINGTON REGIONAL WEATHER ROUNDUP
NATIONAL WEATHER SERVICE SEATTLE WA
200 PM PDT WED APR 17 2019

NOTE:"FAIR" INDICATES FEW OR NO CLOUDS BELOW 12,000 FEET WITH NO 
SIGNIFICANT WEATHER AND/OR OBSTRUCTIONS TO VISIBILITY.

WAZ507-509-555>559-172200-
SEATTLE, TACOMA, EVERETT, AND VICINITY
  
CITY           SKY/WX    TMP DP  RH WIND       PRES   REMARKS
EVERETT        CLOUDY    55  46  71 S14       30.31S                  
BOEING FIELD   PTSUNNY   59  46  62 S18       30.31F                  
RENTON         MOSUNNY   61  46  57 S10       30.31S                  
SEATAC AIRPORT PTSUNNY   58  47  66 S13       30.31F                  
JBLM-MCCHORD   CLOUDY    57  54  88 S12       30.31F                  
PUYALLUP       PTSUNNY   61  48  63 W7        30.32F                  
BREMERTON      PTSUNNY   56  49  77 S14G26    30.30S                  
JBLM-FT LEWIS  PTSUNNY   59  55  85 S12       30.31F                  
TACOMA NARROWS PTSUNNY   57  49  74 SW9       30.33S                  
$$
 
WAZ001-503-506-510-514-515-172200-
NORTH INTERIOR
  
CITY           SKY/WX    TMP DP  RH WIND       PRES   REMARKS
BELLINGHAM     MOSUNNY   57  45  64 S15G24    30.28F                  
FRIDAY HARBOR  CLOUDY    57  46  66 SE10      30.30S                  
EASTSOUND      SUNNY     59  46  63 S12       30.28S                  
PORT ANGELES   PTSUNNY   54  46  74 NW5       30.29R                  
EDIZ HOOK      FAIR      53  48  83 NW7       30.29S                  
PORT TOWNSEND  PTSUNNY   57  50  77 E13G20    30.27S                  
NAS WHIDBEY    PTSUNNY   60  46  59 SE15G24   30.33S                  
ARLINGTON      CLOUDY    56  47  71 SE15      30.31F                  
BURLINGTON     MOSUNNY   59  48  67 SE9G20    30.30S                  
$$
 
WAZ020-022-039-040-504-511-512-172200-
SOUTHWEST INTERIOR
  
CITY           SKY/WX    TMP DP  RH WIND       PRES   REMARKS
SHELTON        PTSUNNY   58  49  72 SW14      30.29S                  
OLYMPIA        CLOUDY    57  49  74 S12       30.32F                  
CHEHALIS       FAIR      61  50  67 S9        30.33S                  
KELSO          CLOUDY    59  49  69 S9        30.35F                  
VANCOUVER      CLOUDY    59  46  62 SE6       30.35F                  
SCAPPOOSE, OR  CLOUDY    59  48  67 VRB5      30.35S                  
PORTLAND, OR   CLOUDY    60  45  57 CALM      30.36S                  
$$
 
WAZ021-516-517-172200-
WASHINGTON COAST
  
CITY           SKY/WX    TMP DP  RH WIND       PRES   REMARKS
FORKS          CLOUDY    54  52  93 S9G20     30.28R                  
HOQUIAM        CLOUDY    53  52  96 SW14      30.32S                  
ASTORIA, OR    PTSUNNY   58  50  75 SW17G24   30.33R                  
$$
 
WAZ019-023-024-040-567>569-172200-
CASCADE MOUNTAINS AND COLUMBIA GORGE
  
CITY           SKY/WX    TMP DP  RH WIND       PRES   REMARKS
STAMPEDE PASS  NOT AVBL                                               
TROUTDALE, OR  CLOUDY    58  47  66 N3        30.36S                  
HOOD RIVER, OR CLEAR     61  45  55 MISG      30.32F                  
THE DALLES, OR SUNNY     66  44  45 NW20G31   30.28F                  
$$

WAZ026-027-041>044-520-521-172200-
EAST SLOPES
  
CITY           SKY/WX    TMP DP  RH WIND       PRES   REMARKS
OMAK           SUNNY     68  29  23 S14       30.10F                  
WENATCHEE      SUNNY     65  32  29 NW15      30.16F                  
ELLENSBURG     SUNNY     62  37  39 NW24G35   30.22F                  
YAKIMA         MOSUNNY   63  34  33 W14G21    30.21F                  
SUNNYSIDE ARPT MOCLDY    64  40  41 CALM      30.23S                  
YAKIMA TC      FAIR      64  34  33 W9        30.20F                  
$$

WAZ028-034-035-172200-
COLUMBIA BASIN
  
CITY           SKY/WX    TMP DP  RH WIND       PRES   REMARKS
EPHRATA        SUNNY     65  32  29 SW7G16    30.17F                  
MOSES LAKE     SUNNY     68  35  29 W13       30.18F                  
PASCO          SUNNY     71  37  28 NW8       30.23F                  
RICHLAND ARPT  CLEAR     68  39  34 CALM      30.23F                  
HERMISTON, OR  SUNNY     69  43  38 W17G24    30.24F                  
$$

WAZ036>038-172200-
NORTHEAST WASHINGTON
  
CITY           SKY/WX    TMP DP  RH WIND       PRES   REMARKS
SPOKANE GEIGER PTSUNNY   59  33  37 SW18G29   30.17S                  
SPOKANE FELTS  MOSUNNY   61  34  36 W13G28    30.17S                  
FAIRCHILD AFB  MOSUNNY   58  35  42 SW18G26   30.16S                  
COEURDALENE,ID PTSUNNY   58  36  43 SW21G26   30.16F                  
DEER PARK      MOSUNNY   60  32  34 S15G21    30.14F                  
$$

WAZ029>033-172200-
SOUTHEAST WASHINGTON
  
CITY           SKY/WX    TMP DP  RH WIND       PRES   REMARKS
PULLMAN        CLOUDY    53  40  61 W17G28    30.25S                  
LEWISTON, ID   CLOUDY    61  40  45 S9G16     30.22F                  
WALLA WALLA    MOSUNNY   64  43  46 SW21G28   30.24F                  
PENDLETON, OR  MOSUNNY   62  41  46 W18G28    30.26F                  
$$